Lexington Weather

Lexington, Massachusetts, USA

54°F
12/10/2019 4:42pm 
  • Lexington Conditions: Light rain, Overcast
  • Temperature: 54.0°F / 12.2°CColder 0.3°F than last hour.
  • Dew Point: 52.5°FDecreased 0.2°Fsince last hour.
  • Relative Humidity: 95%Increased 1.0% since last hour.
  • Wind: Wind from WSW WSW 1 mph, 10-min avg: 3 mph, gust: 8 mph
  • Barometer: 29.71 inRising 0.03  inHg/hr Rising Slowly
  • Visibility: 10 miles
  • Rain Today: 0.05 in
  •   

Regional Weather Roundup
for Boston / Norton, MA

        
000
ASUS41 KBOX 090400
RWRBOX

REGIONAL WEATHER ROUNDUP
NATIONAL WEATHER SERVICE BOSTON/NORTON MA
1100 PM EST SUN DEC 08 2019

NOTE:  "FAIR" INDICATES FEW OR NO CLOUDS BELOW 12,000 FEET WITH NO 
SIGNIFICANT WEATHER AND/OR OBSTRUCTIONS TO VISIBILITY.

MAZALL-090500-
EASTERN MASSACHUSETTS
  
CITY           SKY/WX    TMP DP  RH WIND       PRES   REMARKS
BOSTON         CLOUDY    40  30  67 SW13      30.34F                  
BEVERLY        FAIR      37  28  70 S5        30.33F                  
LAWRENCE       FAIR      32  24  72 SW5       30.34S WCI  27          
BEDFORD        MOCLDY    35  26  69 S9        30.32F WCI  28          
BLUE HILL        N/A     34  29  82 S21G31    30.31S WCI  22          
NORWOOD        FAIR      40  29  64 S12       30.35F                  
MARSHFIELD     NOT AVBL                                               
PLYMOUTH       FAIR      41  32  70 SW9       30.37S                  
TAUNTON        FAIR      29  25  85 CALM      30.37F                  
NEW BEDFORD    FAIR      42  33  70 S13       30.37F                  
$$

MAZALL-090500-
CAPE COD AND THE ISLANDS
  
CITY           SKY/WX    TMP DP  RH WIND       PRES   REMARKS
FALMOUTH       CLOUDY    43  34  70 SW14      30.40R                  
HYANNIS        NOT AVBL                                               
CHATHAM        FAIR      41  36  82 SW8G20    30.42F                  
PROVINCETOWN   FAIR      43  36  76 S18G24    30.38F                  
NANTUCKET      MOCLDY    44  36  73 S15       30.43S                  
MARTHAS VNYRD  CLOUDY    45  35  68 S18       30.41S                  
$$
 
MAZALL-090500-
CENTRAL AND WESTERN MASSACHUSETTS
  
CITY           SKY/WX    TMP DP  RH WIND       PRES   REMARKS
WORCESTER      MOCLDY    32  27  81 SW16      30.30F WCI  21          
FITCHBURG      FAIR      37  28  70 SW17G25   30.31S WCI  27          
ORANGE         CLOUDY    36  28  73 S10G18    30.31S WCI  28          
SPRINGFIELD    CLOUDY    32  26  77 S12       30.33S WCI  23          
WESTFIELD      CLOUDY    31  24  75 S7        30.34S WCI  24          
NORTH ADAMS    CLOUDY    38  25  59 SW17G36   30.25S WCI  28          
PITTSFIELD     CLOUDY    35  26  69 S13G20    30.24F WCI  26          
$$
 
RIZALL-090500-
RHODE ISLAND
  
CITY           SKY/WX    TMP DP  RH WIND       PRES   REMARKS
PROVIDENCE     MOCLDY    29  28  96 S3        30.38F                  
NEWPORT        FAIR      45  34  65 S9        30.38F                  
BLOCK ISLAND   FAIR      46  35  65 S17G24    30.38F                  
SMITHFIELD     FAIR      34  30  85 SW5       30.36S WCI  30          
WESTERLY       FAIR      47  35  63 S10       30.38F                  
$$
 
CTZALL-090500-
CONNECTICUT
  
CITY           SKY/WX    TMP DP  RH WIND       PRES   REMARKS
BRADLEY INTL   MOCLDY    33  22  63 CALM      30.35S                  
HARTFORD       MOCLDY    26  23  88 CALM      30.36F                  
BRIDGEPORT     FAIR      36  32  85 CALM      30.35F                  
DANBURY        FAIR      27  25  92 CALM      30.34F                  
GROTON         NOT AVBL                                               
NEW HAVEN      FAIR      44  37  76 S5        30.35F                  
CHESTER        MOCLDY    39  36  87 S5        30.35F                  
MERIDEN        FAIR      25  22  88 CALM      30.35F                  
WILLIMANTIC    FAIR      21  16  81 NE3       30.38F                  
OXFORD         FAIR      33  31  92 SW6       30.32F WCI  28          
$$

MEZ002-015-021-024-NHZ003-005-008-011-012-014-VTZ005-008-090500-
NORTHERN NEW ENGLAND
  
CITY           SKY/WX    TMP DP  RH WIND       PRES   REMARKS
PORTLAND ME    MOCLDY    35  21  56 SW10      30.31S WCI  27          
BANGOR ME      CLOUDY    36  26  67 S18G25    30.24F WCI  26          
CONCORD NH     CLOUDY    28  17  63 SE7       30.30S WCI  21          
MANCHESTER NH  CLOUDY    30  22  72 SE8       30.29F WCI  22          
NASHUA NH      FAIR      28  24  85 SE3       30.32S                  
PORTSMOUTH NH  CLOUDY    31  23  70 SW7       30.30F WCI  25          
JAFFREY NH     CLOUDY    33  32  96 S9        30.26F WCI  25          
KEENE NH       CLOUDY    31  27  85 S3        30.29F                  
BURLINGTON VT  FAIR      34  20  56 S26G38    30.13S WCI  21          
MT. WASHINGTON BLWGSNOW  19  19 100 W64G74      N/A  VSB 0   WCI  -6  
$$

NYZ052-076-090500-
EASTERN NEW YORK
  
CITY           SKY/WX    TMP DP  RH WIND       PRES   REMARKS
ALBANY         CLOUDY    37  22  54 S24G35    30.22F WCI  26          
NEW YORK CITY  MOCLDY    43  33  68 S6        30.34F                  
$$
 
ANZALL-090500-
MARINE OBSERVATIONS
  
STATION/POSITION TIME  TEMP    WIND        PRES    VSBY  WAVE
                       AIR SEA DIR/SP/G                  HT/PER
                 (UTC) (F)     (DEG/KT/KT) (MB)    (MI)  (FT/S)
BOSTON BUOY      0250   38 47  180/ 16/ 19 1027.4          2/ 5
BUZZARDS BAY     0300   46     210/ 22/ 26 1029.4F
NANTUCKET SOUND  0340      42              1030.1S
MASS BAY-STELLWA 0304   39 46  210/ 17/ 19 1025.9F  1 7/8  4/ 5
ISLE OF SHOALS   0300   37     210/ 25/ 28 1026.5F
S OF BLOCK IS    0330      51                N/A           5/ 5
$$

......................KEY.........................
  SKY/WX - SKY CONDITION/PRESENT WEATHER
  TMP    - TEMPERATURE IN FAHRENHEIT
  DWPT   - DEWPOINT IN FAHRENHEIT
  RH     - RELATIVE HUMIDITY IN PERCENT
  WIND   - DIRECTION AND SPEED IN MPH
  PRES   - MEAN SEA LEVEL PRESSURE IN INCHES OF HG
  WCI    - WIND CHILL INDEX
  VSB    - VISIBILITY IN MILES
  HX     - HEAT INDEX
  TC     - TEMPERATURE IN CELSIUS
  VRB    - VARIABLE WIND DIRECTION
  N/A    - NOT AVAILABLE
  
      

Other recent Regional Weather Roundups

Tue Dec 10, 4:10pm

Tue Dec 10, 4:01pm

Tue Dec 10, 3:10pm

Tue Dec 10, 3:01pm

Tue Dec 10, 2:10pm

Tue Dec 10, 2:01pm

Tue Dec 10, 1:10pm

Tue Dec 10, 1:00pm

Tue Dec 10, 12:10pm

Tue Dec 10, 12:00pm

Tue Dec 10, 11:10am

Tue Dec 10, 11:00am

Tue Dec 10, 10:10am

Tue Dec 10, 10:00am

Tue Dec 10, 9:10am

Tue Dec 10, 9:01am

Tue Dec 10, 8:10am

Tue Dec 10, 8:00am

Tue Dec 10, 7:10am

Tue Dec 10, 7:00am

Tue Dec 10, 6:10am

Tue Dec 10, 6:00am

Tue Dec 10, 5:10am

Tue Dec 10, 5:00am

Tue Dec 10, 4:10am

Tue Dec 10, 4:00am

Tue Dec 10, 3:10am

Tue Dec 10, 3:00am

Tue Dec 10, 2:10am

Tue Dec 10, 2:01am

Tue Dec 10, 1:10am

Tue Dec 10, 1:00am

Tue Dec 10, 12:10am

Tue Dec 10, 12:01am

Mon Dec 9, 11:10pm

Mon Dec 9, 11:01pm

Mon Dec 9, 10:10pm

Mon Dec 9, 10:00pm

Mon Dec 9, 9:10pm

Mon Dec 9, 9:01pm

Mon Dec 9, 8:10pm

Mon Dec 9, 8:01pm

Mon Dec 9, 7:10pm

Mon Dec 9, 7:00pm

Mon Dec 9, 6:10pm

Mon Dec 9, 6:00pm

Mon Dec 9, 5:10pm

Mon Dec 9, 5:01pm

Mon Dec 9, 4:10pm

Mon Dec 9, 4:01pm

Mon Dec 9, 3:10pm

Mon Dec 9, 3:01pm

Mon Dec 9, 2:10pm

Mon Dec 9, 2:00pm

Mon Dec 9, 1:10pm

Mon Dec 9, 1:00pm

Mon Dec 9, 12:10pm

Mon Dec 9, 12:00pm

Mon Dec 9, 11:10am

Mon Dec 9, 11:00am

Mon Dec 9, 10:10am

Mon Dec 9, 10:00am

Mon Dec 9, 9:10am

Mon Dec 9, 9:00am

Mon Dec 9, 8:10am

Mon Dec 9, 8:00am

Mon Dec 9, 7:10am

Mon Dec 9, 7:00am

Mon Dec 9, 6:10am

Mon Dec 9, 6:00am

Mon Dec 9, 5:10am

Mon Dec 9, 5:00am

Mon Dec 9, 4:10am

Mon Dec 9, 4:00am

Mon Dec 9, 3:10am

Mon Dec 9, 3:00am

Mon Dec 9, 2:10am

Mon Dec 9, 2:00am

Mon Dec 9, 1:10am

Mon Dec 9, 1:00am

Mon Dec 9, 12:10am

Mon Dec 9, 12:00am

Sun Dec 8, 11:10pm

Sun Dec 8, 10:10pm

Sun Dec 8, 10:01pm

Sun Dec 8, 9:10pm

Sun Dec 8, 9:01pm

Sun Dec 8, 8:10pm

Sun Dec 8, 8:00pm

Sun Dec 8, 7:10pm

Sun Dec 8, 7:00pm

Sun Dec 8, 6:10pm

Sun Dec 8, 6:01pm

Sun Dec 8, 5:10pm

Sun Dec 8, 5:00pm

Sun Dec 8, 4:10pm

Sun Dec 8, 4:01pm

Sun Dec 8, 3:10pm

Sun Dec 8, 3:01pm

Sun Dec 8, 2:10pm

Sun Dec 8, 2:01pm

Sun Dec 8, 1:10pm

Sun Dec 8, 1:00pm

Sun Dec 8, 12:10pm

Sun Dec 8, 12:01pm

Sun Dec 8, 11:10am

Sun Dec 8, 11:00am

Sun Dec 8, 10:10am

Sun Dec 8, 10:01am

Sun Dec 8, 9:10am

Sun Dec 8, 9:00am

Sun Dec 8, 8:10am

Sun Dec 8, 8:00am

Sun Dec 8, 7:10am

Sun Dec 8, 7:00am

Sun Dec 8, 6:10am

Sun Dec 8, 6:00am

Sun Dec 8, 5:10am

Sun Dec 8, 5:00am

Sun Dec 8, 4:10am

Sun Dec 8, 4:00am

Sun Dec 8, 3:10am

Sun Dec 8, 3:00am

Sun Dec 8, 2:10am

Sun Dec 8, 2:00am

Sun Dec 8, 1:10am

Sun Dec 8, 1:00am

Sun Dec 8, 12:10am

Sun Dec 8, 12:01am

Sat Dec 7, 11:10pm

Sat Dec 7, 11:00pm

Sat Dec 7, 10:10pm

Sat Dec 7, 10:00pm

Sat Dec 7, 9:10pm

Sat Dec 7, 9:00pm

Sat Dec 7, 8:10pm

Sat Dec 7, 8:00pm

Sat Dec 7, 7:10pm

Sat Dec 7, 7:00pm

Sat Dec 7, 6:10pm

Sat Dec 7, 6:00pm

Sat Dec 7, 5:10pm

Sat Dec 7, 5:00pm

Meta data:

ID: 27db180e-983f-43a2-b27d-36ee0a8bbf2f
Link: https://api.weather.gov/products/27db180e-983f-43a2-b27d-36ee0a8bbf2f